contact:dominique.lefevre@mio.osupytheas.fr, maurice.libes@osupytheas.fr, didier.mallarino@osupytheas.fr
Project:EMSO http://www.emso-fr.org/EMSO-France
Depth: 2436.0 m
Title:EMSO Ligure Ouest : Data MII capteur AQUADOPP
Date,Latitude,Longitude,X_East,Y_North,Z_Up,Amplitude_X,Amplitude_Y,Amplitude_Z,Batterie,SoundSpeed,Heading,Pitch,Roll,Pressure,TIS,Speed,Direction
, degrees North, degrees East, m.s-1, m.s-1,m.s-1, 1, 1, 1, Volt, m.s-1, degree, degree, degree, dbar, degree_C, m.s-1, degree
2021-04-25T00:04:03,42.805,6.029,0.029,-0.014,-0.007,104.0,104.0,103.0,13.3,1505.2,326.9,-0.8,1.8,2469.55,13.28,0.032,115.8
2021-04-25T00:07:03,42.805,6.029,0.006,-0.013,-0.016,106.0,104.0,103.0,13.4,1505.2,326.1,-0.8,1.8,2469.522,13.28,0.014,155.2
2021-04-25T00:10:03,42.805,6.029,0.03,-0.017,0.002,106.0,104.0,103.0,13.4,1505.2,324.5,-0.8,1.8,2469.551,13.28,0.034,119.5
2021-04-25T00:13:03,42.805,6.029,0.043,-0.032,0.018,105.0,105.0,103.0,13.4,1505.2,324.8,-0.8,1.9,2469.572,13.28,0.053,126.7
2021-04-25T00:16:03,42.805,6.029,0.003,-0.016,-0.005,105.0,105.0,102.0,13.4,1505.2,328.1,-0.7,1.8,2469.567,13.28,0.016,169.4
2021-04-25T00:19:03,42.805,6.029,0.013,-0.018,0.006,105.0,104.0,103.0,13.3,1505.2,325.7,-0.8,1.8,2469.587,13.28,0.022,144.2
2021-04-25T00:22:03,42.805,6.029,0.06,-0.022,0.006,105.0,105.0,103.0,13.4,1505.2,326.1,-0.7,1.8,2469.672,13.28,0.063,110.1
2021-04-25T00:25:03,42.805,6.029,0.036,-0.023,0.0,104.0,105.0,102.0,13.4,1505.2,327.4,-0.8,1.9,2469.681,13.28,0.042,122.6
2021-04-25T00:28:03,42.805,6.029,0.023,-0.013,0.007,104.0,105.0,103.0,13.4,1505.2,325.1,-0.8,1.8,2469.726,13.28,0.026,119.5
2021-04-25T00:31:03,42.805,6.029,0.03,-0.023,-0.012,104.0,104.0,103.0,13.3,1505.2,324.2,-0.8,1.8,2469.756,13.28,0.037,127.5
2021-04-25T00:34:03,42.805,6.029,0.045,-0.017,0.035,105.0,104.0,103.0,13.4,1505.2,323.5,-0.8,1.8,2469.752,13.28,0.048,110.7
2021-04-25T00:37:03,42.805,6.029,0.025,-0.027,-0.01,106.0,105.0,103.0,13.3,1505.2,326.2,-0.8,1.8,2469.808,13.28,0.036,137.2
2021-04-25T00:40:03,42.805,6.029,0.024,-0.018,-0.01,106.0,105.0,103.0,13.3,1505.2,326.7,-0.7,1.8,2469.795,13.28,0.03,126.9
2021-04-25T00:43:03,42.805,6.029,0.025,-0.024,0.0,106.0,105.0,103.0,13.4,1505.2,327.6,-0.8,1.8,2469.817,13.28,0.034,133.8
2021-04-25T00:46:03,42.805,6.029,0.04,-0.013,0.0,105.0,106.0,102.0,13.4,1505.2,328.6,-0.8,1.8,2469.854,13.28,0.042,108.0
2021-04-25T00:49:03,42.805,6.029,0.028,-0.006,0.036,106.0,106.0,102.0,13.4,1505.2,327.4,-0.8,1.8,2469.889,13.28,0.028,102.1
2021-04-25T00:52:03,42.805,6.029,0.036,-0.037,-0.001,104.0,104.0,104.0,13.3,1505.2,326.4,-0.7,1.8,2469.902,13.28,0.051,135.8
2021-04-25T00:55:03,42.805,6.029,0.014,-0.007,-0.004,104.0,104.0,103.0,13.4,1505.2,328.7,-0.8,1.8,2469.948,13.28,0.015,116.6
2021-04-25T00:58:03,42.805,6.029,0.015,-0.018,0.013,105.0,104.0,103.0,13.4,1505.2,326.7,-0.8,1.8,2469.954,13.28,0.023,140.2
2021-04-25T01:04:03,42.805,6.029,0.019,-0.011,0.01,104.0,105.0,104.0,13.4,1505.2,327.0,-0.8,1.9,2470.038,13.28,0.021,120.1
2021-04-25T01:07:03,42.805,6.029,0.019,-0.015,0.027,105.0,102.0,103.0,13.4,1505.2,326.7,-0.8,1.8,2470.022,13.28,0.024,128.3
2021-04-25T01:10:03,42.805,6.029,0.025,-0.003,0.016,105.0,104.0,103.0,13.4,1505.2,327.5,-0.7,1.8,2470.046,13.28,0.025,96.8
2021-04-25T01:13:03,42.805,6.029,0.017,0.0,0.009,105.0,104.0,103.0,13.4,1505.2,327.2,-0.7,1.8,2470.033,13.28,0.017,90.0
2021-04-25T01:16:03,42.805,6.029,0.028,-0.011,-0.026,104.0,104.0,101.0,13.4,1505.2,324.7,-0.7,1.8,2470.098,13.28,0.03,111.4
2021-04-25T01:19:03,42.805,6.029,0.007,-0.027,-0.018,104.0,104.0,103.0,13.4,1505.2,328.0,-0.7,1.8,2470.002,13.28,0.027,165.5
2021-04-25T01:22:03,42.805,6.029,0.036,-0.003,-0.017,103.0,104.0,103.0,13.3,1505.2,328.3,-0.7,1.8,2470.111,13.28,0.036,94.8
2021-04-25T01:25:03,42.805,6.029,0.031,-0.009,0.014,107.0,102.0,102.0,13.4,1505.2,325.5,-0.7,1.8,2470.077,13.28,0.032,106.2
2021-04-25T01:28:03,42.805,6.029,0.008,-0.019,0.007,103.0,105.0,103.0,13.4,1505.2,327.0,-0.7,1.8,2470.1,13.28,0.02,157.2
2021-04-25T01:31:03,42.805,6.029,0.029,-0.015,0.01,104.0,106.0,102.0,13.4,1505.2,325.3,-0.7,1.8,2470.145,13.28,0.032,117.4
2021-04-25T01:34:03,42.805,6.029,0.015,-0.015,-0.024,104.0,104.0,102.0,13.4,1505.2,325.7,-0.7,1.8,2470.104,13.28,0.021,135.0
2021-04-25T01:37:03,42.805,6.029,0.003,-0.01,0.041,105.0,103.0,104.0,13.4,1505.2,324.3,-0.8,1.8,2470.089,13.28,0.01,163.3
2021-04-25T01:40:03,42.805,6.029,0.021,-0.009,0.011,103.0,105.0,103.0,13.4,1505.2,327.2,-0.8,1.8,2470.091,13.28,0.022,113.2
2021-04-25T01:43:03,42.805,6.029,0.035,-0.029,-0.004,105.0,104.0,103.0,13.4,1505.2,327.3,-0.7,1.8,2470.048,13.28,0.045,129.6
2021-04-25T01:46:03,42.805,6.029,0.022,-0.004,0.017,104.0,106.0,103.0,13.3,1505.2,324.6,-0.8,1.8,2470.077,13.28,0.022,100.3
2021-04-25T01:49:03,42.805,6.029,0.004,-0.01,-0.012,105.0,106.0,103.0,13.4,1505.2,327.3,-0.8,1.8,2470.078,13.28,0.01,158.2
2021-04-25T01:52:03,42.805,6.029,0.018,-0.021,-0.016,105.0,105.0,102.0,13.3,1505.2,327.2,-0.8,1.8,2470.079,13.28,0.027,139.4
2021-04-25T01:55:03,42.805,6.029,0.021,-0.026,-0.004,105.0,106.0,103.0,13.4,1505.2,325.6,-0.8,1.8,2470.044,13.28,0.033,141.1
2021-04-25T01:58:03,42.805,6.029,0.016,-0.009,-0.015,105.0,106.0,102.0,13.3,1505.2,329.2,-0.7,1.8,2470.104,13.28,0.018,119.4
2021-04-25T02:04:03,42.805,6.029,0.008,-0.003,0.023,104.0,104.0,103.0,13.4,1505.2,328.0,-0.8,1.8,2470.055,13.28,0.008,110.6
2021-04-25T02:07:03,42.805,6.029,0.039,-0.019,0.008,105.0,103.0,102.0,13.4,1505.2,324.3,-0.8,1.8,2469.99,13.28,0.043,116.0
2021-04-25T02:10:03,42.805,6.029,0.031,-0.047,0.001,106.0,104.0,102.0,13.3,1505.2,329.1,-0.7,1.8,2469.952,13.28,0.056,146.6
2021-04-25T02:13:03,42.805,6.029,0.04,-0.011,0.004,104.0,105.0,101.0,13.4,1505.2,325.2,-0.8,1.8,2469.959,13.28,0.041,105.4
2021-04-25T02:16:03,42.805,6.029,0.019,-0.034,0.028,104.0,103.0,103.0,13.3,1505.2,327.1,-0.7,1.8,2469.937,13.28,0.038,150.8
2021-04-25T02:19:03,42.805,6.029,0.038,0.007,0.01,106.0,105.0,103.0,13.3,1505.2,327.1,-0.8,1.9,2469.917,13.28,0.038,79.6
2021-04-25T02:22:03,42.805,6.029,0.029,-0.02,0.006,104.0,104.0,103.0,13.3,1505.2,326.8,-0.7,1.8,2469.859,13.28,0.035,124.6
2021-04-25T02:25:03,42.805,6.029,0.048,-0.032,-0.006,104.0,105.0,102.0,13.4,1505.2,327.4,-0.8,1.8,2469.903,13.28,0.057,123.7
2021-04-25T02:28:03,42.805,6.029,0.012,0.0,0.006,104.0,104.0,104.0,13.3,1505.2,324.4,-0.8,1.8,2469.856,13.28,0.012,90.0
2021-04-25T02:31:03,42.805,6.029,0.026,-0.024,-0.011,105.0,105.0,102.0,13.4,1505.2,324.2,-0.7,1.9,2469.863,13.28,0.035,132.7
2021-04-25T02:34:03,42.805,6.029,0.029,-0.017,0.009,104.0,104.0,103.0,13.4,1505.2,329.1,-0.7,1.8,2469.79,13.28,0.033,120.4
2021-04-25T02:37:03,42.805,6.029,0.021,-0.011,-0.002,103.0,103.0,102.0,13.4,1505.2,325.1,-0.8,1.8,2469.789,13.28,0.023,117.6
2021-04-25T02:40:03,42.805,6.029,0.021,-0.015,0.025,102.0,104.0,103.0,13.4,1505.2,326.0,-0.8,1.8,2469.784,13.28,0.025,125.5
2021-04-25T02:43:03,42.805,6.029,0.021,-0.019,0.0,103.0,104.0,101.0,13.4,1505.2,324.2,-0.8,1.8,2469.788,13.28,0.028,132.1
2021-04-25T02:46:03,42.805,6.029,0.032,-0.009,-0.012,104.0,104.0,103.0,13.4,1505.2,328.2,-0.8,1.8,2469.742,13.28,0.033,105.7
2021-04-25T02:49:03,42.805,6.029,0.014,-0.018,0.012,106.0,105.0,102.0,13.3,1505.2,325.6,-0.7,1.8,2469.707,13.28,0.022,142.1
2021-04-25T02:52:03,42.805,6.029,0.007,-0.015,0.015,105.0,103.0,103.0,13.3,1505.2,323.7,-0.7,1.8,2469.693,13.28,0.016,155.0
2021-04-25T02:55:03,42.805,6.029,0.01,-0.022,0.011,104.0,103.0,104.0,13.4,1505.2,328.2,-0.8,1.8,2469.664,13.28,0.024,155.6
2021-04-25T02:58:03,42.805,6.029,0.02,-0.005,0.017,104.0,104.0,103.0,13.3,1505.2,328.1,-0.8,1.8,2469.659,13.28,0.02,104.0
2021-04-25T03:04:03,42.805,6.029,0.008,-0.026,0.021,105.0,104.0,103.0,13.4,1505.2,329.2,-0.7,1.8,2469.664,13.28,0.027,162.9
2021-04-25T03:07:03,42.805,6.029,0.019,-0.011,0.031,105.0,105.0,102.0,13.4,1505.2,327.7,-0.8,1.8,2469.609,13.28,0.021,120.1
2021-04-25T03:10:03,42.805,6.029,0.017,-0.002,0.026,105.0,105.0,102.0,13.4,1505.2,328.5,-0.8,1.8,2469.605,13.28,0.017,96.7
2021-04-25T03:13:03,42.805,6.029,0.026,-0.011,0.013,104.0,103.0,103.0,13.4,1505.2,326.1,-0.7,1.8,2469.589,13.28,0.028,112.9
2021-04-25T03:16:03,42.805,6.029,0.018,-0.002,0.004,104.0,105.0,103.0,13.3,1505.2,328.5,-0.8,1.8,2469.625,13.28,0.018,96.3
2021-04-25T03:19:03,42.805,6.029,0.009,-0.013,-0.019,104.0,104.0,102.0,13.3,1505.2,326.0,-0.7,1.8,2469.615,13.28,0.015,145.3
2021-04-25T03:22:03,42.805,6.029,0.018,-0.007,0.001,105.0,105.0,102.0,13.3,1505.2,325.3,-0.8,1.9,2469.583,13.28,0.019,111.2
2021-04-25T03:25:03,42.805,6.029,0.018,-0.023,-0.004,104.0,104.0,103.0,13.4,1505.2,323.6,-0.8,1.8,2469.576,13.28,0.029,142.0
2021-04-25T03:28:03,42.805,6.029,0.011,-0.009,0.012,104.0,104.0,102.0,13.4,1505.2,327.1,-0.8,1.8,2469.612,13.28,0.014,129.3
2021-04-25T03:31:03,42.805,6.029,0.014,-0.005,0.027,103.0,104.0,102.0,13.3,1505.2,325.3,-0.8,1.9,2469.583,13.28,0.014,109.6
2021-04-25T03:34:03,42.805,6.029,0.019,-0.023,-0.005,104.0,105.0,102.0,13.4,1505.2,325.5,-0.7,1.8,2469.566,13.28,0.029,140.4
2021-04-25T03:37:03,42.805,6.029,0.021,-0.007,0.014,104.0,103.0,104.0,13.4,1505.2,326.0,-0.7,1.8,2469.559,13.28,0.022,108.4
2021-04-25T03:40:03,42.805,6.029,0.028,-0.026,0.007,104.0,106.0,102.0,13.3,1505.2,328.7,-0.7,1.9,2469.525,13.28,0.038,132.9
2021-04-25T03:43:03,42.805,6.029,0.028,-0.024,0.007,104.0,105.0,104.0,13.4,1505.2,324.8,-0.8,1.8,2469.52,13.28,0.036,130.6
2021-04-25T03:46:03,42.805,6.029,0.024,-0.02,0.001,105.0,104.0,103.0,13.4,1505.2,323.8,-0.8,1.8,2469.538,13.28,0.031,129.8
2021-04-25T03:49:03,42.805,6.029,0.016,-0.016,-0.008,103.0,104.0,103.0,13.3,1505.2,325.4,-0.7,1.8,2469.554,13.28,0.022,135.0
2021-04-25T03:52:03,42.805,6.029,0.015,-0.012,-0.007,105.0,103.0,102.0,13.3,1505.2,329.3,-0.7,1.9,2469.508,13.28,0.019,128.7
2021-04-25T03:55:03,42.805,6.029,0.026,-0.012,0.014,104.0,104.0,102.0,13.4,1505.2,325.2,-0.7,1.8,2469.492,13.28,0.028,114.8
2021-04-25T03:58:03,42.805,6.029,0.007,-0.025,0.0,103.0,104.0,102.0,13.4,1505.2,327.7,-0.8,1.8,2469.506,13.28,0.025,164.4
2021-04-25T04:04:03,42.805,6.029,0.025,-0.017,-0.015,103.0,103.0,103.0,13.4,1505.2,326.0,-0.7,1.8,2469.502,13.28,0.03,124.2
2021-04-25T04:07:03,42.805,6.029,0.037,-0.008,0.015,104.0,103.0,103.0,13.4,1505.2,324.1,-0.8,1.8,2469.462,13.28,0.037,102.2
2021-04-25T04:10:03,42.805,6.029,0.026,-0.021,0.036,103.0,104.0,102.0,13.4,1505.2,328.1,-0.8,1.8,2469.486,13.28,0.033,128.9
2021-04-25T04:13:03,42.805,6.029,0.006,-0.007,0.025,104.0,103.0,102.0,13.4,1505.2,325.5,-0.8,1.8,2469.438,13.28,0.009,139.4
2021-04-25T04:16:03,42.805,6.029,0.025,-0.013,0.004,103.0,105.0,102.0,13.3,1505.2,325.7,-0.7,1.8,2469.484,13.28,0.028,117.5
2021-04-25T04:19:03,42.805,6.029,0.011,-0.021,0.029,103.0,104.0,103.0,13.3,1505.2,325.3,-0.7,1.8,2469.516,13.28,0.023,152.4
2021-04-25T04:22:03,42.805,6.029,0.025,-0.012,0.002,103.0,104.0,102.0,13.3,1505.2,325.2,-0.7,1.8,2469.433,13.28,0.027,115.6
2021-04-25T04:25:03,42.805,6.029,0.014,-0.036,-0.004,104.0,103.0,101.0,13.4,1505.2,328.0,-0.8,1.8,2469.458,13.28,0.038,158.8
2021-04-25T04:28:03,42.805,6.029,0.001,0.003,0.011,103.0,104.0,102.0,13.3,1505.2,327.5,-0.7,1.8,2469.435,13.28,0.003,18.4
2021-04-25T04:31:03,42.805,6.029,0.02,-0.01,0.006,104.0,104.0,101.0,13.4,1505.2,328.3,-0.8,1.9,2469.45,13.28,0.022,116.6
2021-04-25T04:34:03,42.805,6.029,0.01,0.0,0.019,104.0,104.0,103.0,13.4,1505.2,326.9,-0.8,1.8,2469.463,13.28,0.01,90.0
2021-04-25T04:37:03,42.805,6.029,0.013,-0.017,-0.014,104.0,104.0,102.0,13.3,1505.2,324.8,-0.8,1.9,2469.44,13.28,0.021,142.6
2021-04-25T04:40:03,42.805,6.029,0.008,-0.026,-0.01,105.0,104.0,101.0,13.4,1505.2,327.9,-0.8,1.8,2469.46,13.28,0.027,162.9
2021-04-25T04:43:03,42.805,6.029,0.009,0.012,0.031,104.0,103.0,102.0,13.4,1505.2,327.5,-0.7,1.8,2469.4,13.28,0.015,36.9
2021-04-25T04:46:03,42.805,6.029,0.03,-0.017,-0.01,103.0,105.0,103.0,13.3,1505.2,325.7,-0.8,1.8,2469.434,13.28,0.034,119.5
2021-04-25T04:49:03,42.805,6.029,0.028,-0.022,0.012,104.0,103.0,102.0,13.4,1505.2,325.0,-0.8,1.8,2469.386,13.28,0.035,128.2
2021-04-25T04:52:03,42.805,6.029,0.013,-0.026,0.004,105.0,105.0,102.0,13.3,1505.2,327.4,-0.8,1.8,2469.436,13.28,0.029,153.4
2021-04-25T04:55:03,42.805,6.029,0.027,0.009,0.014,104.0,104.0,103.0,13.4,1505.2,325.8,-0.7,1.8,2469.376,13.28,0.028,71.6
2021-04-25T04:58:03,42.805,6.029,0.034,-0.009,-0.02,105.0,105.0,101.0,13.3,1505.2,326.0,-0.8,1.8,2469.42,13.28,0.035,104.8
2021-04-25T05:04:03,42.805,6.029,0.035,-0.008,-0.001,101.0,104.0,103.0,13.4,1505.2,324.8,-0.7,1.8,2469.466,13.28,0.035,102.9
2021-04-25T05:07:03,42.805,6.029,0.03,-0.008,0.009,106.0,103.0,102.0,13.4,1505.2,327.2,-0.8,1.8,2469.416,13.28,0.031,104.9
2021-04-25T05:10:03,42.805,6.029,0.016,0.002,0.004,103.0,104.0,102.0,13.4,1505.2,325.9,-0.7,1.8,2469.41,13.28,0.016,82.9
2021-04-25T05:13:03,42.805,6.029,-0.008,-0.013,0.0,104.0,102.0,102.0,13.4,1505.2,326.0,-0.7,1.8,2469.441,13.28,0.015,211.6
2021-04-25T05:16:03,42.805,6.029,0.019,-0.022,0.023,104.0,104.0,101.0,13.4,1505.2,328.4,-0.7,1.8,2469.427,13.28,0.029,139.2
2021-04-25T05:19:03,42.805,6.029,0.036,-0.018,0.009,104.0,105.0,103.0,13.3,1505.2,326.9,-0.7,1.8,2469.439,13.28,0.04,116.6
2021-04-25T05:22:03,42.805,6.029,0.013,-0.011,0.053,104.0,103.0,102.0,13.4,1505.2,327.1,-0.8,1.8,2469.422,13.28,0.017,130.2
2021-04-25T05:25:03,42.805,6.029,0.004,0.003,0.005,103.0,104.0,103.0,13.4,1505.2,323.5,-0.8,1.8,2469.468,13.28,0.005,53.1
2021-04-25T05:28:03,42.805,6.029,0.026,0.005,0.017,105.0,104.0,103.0,13.4,1505.2,328.7,-0.8,1.8,2469.455,13.28,0.026,79.1
2021-04-25T05:31:03,42.805,6.029,0.018,-0.004,0.026,104.0,104.0,102.0,13.4,1505.2,324.9,-0.7,1.8,2469.422,13.28,0.018,102.5
2021-04-25T05:34:03,42.805,6.029,0.028,0.007,0.012,103.0,103.0,103.0,13.4,1505.2,327.6,-0.8,1.8,2469.417,13.28,0.028,76.0
2021-04-25T05:37:03,42.805,6.029,0.02,-0.024,0.02,104.0,102.0,103.0,13.4,1505.2,324.0,-0.8,1.8,2469.462,13.28,0.031,140.2
2021-04-25T05:40:03,42.805,6.029,0.012,-0.015,0.005,103.0,105.0,102.0,13.3,1505.2,327.5,-0.8,1.8,2469.436,13.28,0.019,141.3
2021-04-25T05:43:03,42.805,6.029,0.03,-0.003,0.002,104.0,104.0,102.0,13.3,1505.2,327.4,-0.8,1.8,2469.447,13.28,0.03,95.7
2021-04-25T05:46:03,42.805,6.029,0.026,-0.013,0.006,105.0,104.0,102.0,13.3,1505.2,324.5,-0.8,1.8,2469.436,13.28,0.029,116.6
2021-04-25T05:49:03,42.805,6.029,0.023,-0.006,-0.001,104.0,105.0,101.0,13.4,1505.2,325.6,-0.8,1.8,2469.457,13.28,0.023,104.6
2021-04-25T05:52:03,42.805,6.029,0.035,-0.024,0.001,105.0,104.0,102.0,13.4,1505.2,327.7,-0.7,1.8,2469.439,13.28,0.042,124.4
2021-04-25T05:55:03,42.805,6.029,-0.002,0.0,0.017,103.0,105.0,102.0,13.4,1505.2,326.9,-0.8,1.8,2469.436,13.28,0.002,270.0
2021-04-25T05:58:03,42.805,6.029,0.006,-0.017,0.016,104.0,103.0,102.0,13.3,1505.2,324.1,-0.7,1.8,2469.408,13.28,0.018,160.6
2021-04-25T06:04:03,42.805,6.029,0.014,-0.012,0.015,102.0,105.0,102.0,13.3,1505.2,328.2,-0.7,1.8,2469.434,13.28,0.018,130.6
2021-04-25T06:07:03,42.805,6.029,0.013,-0.007,0.03,103.0,103.0,102.0,13.4,1505.2,328.2,-0.7,1.8,2469.383,13.28,0.014,118.3
2021-04-25T06:10:03,42.805,6.029,0.007,-0.001,0.005,104.0,102.0,102.0,13.4,1505.2,325.1,-0.8,1.8,2469.434,13.28,0.007,98.1
2021-04-25T06:13:03,42.805,6.029,0.0,-0.024,-0.005,103.0,103.0,102.0,13.4,1505.2,326.4,-0.8,1.8,2469.4,13.28,0.024,180.0
2021-04-25T06:16:03,42.805,6.029,0.021,-0.007,0.011,103.0,103.0,101.0,13.4,1505.2,324.3,-0.7,1.9,2469.431,13.28,0.022,108.4
2021-04-25T06:19:03,42.805,6.029,0.006,-0.008,0.016,103.0,103.0,101.0,13.3,1505.2,328.7,-0.7,1.8,2469.389,13.28,0.01,143.1
2021-04-25T06:22:03,42.805,6.029,0.007,-0.013,0.001,103.0,102.0,102.0,13.3,1505.2,326.1,-0.8,1.8,2469.415,13.28,0.014,151.7
2021-04-25T06:25:03,42.805,6.029,0.043,-0.011,0.006,103.0,103.0,102.0,13.4,1505.2,325.1,-0.8,1.8,2469.405,13.28,0.044,104.3
2021-04-25T06:28:03,42.805,6.029,0.015,-0.019,0.018,102.0,104.0,102.0,13.4,1505.2,329.1,-0.7,1.8,2469.398,13.28,0.024,141.7
2021-04-25T06:31:03,42.805,6.029,0.03,-0.008,0.011,104.0,105.0,102.0,13.4,1505.2,326.2,-0.7,1.8,2469.433,13.28,0.031,104.9
2021-04-25T06:34:03,42.805,6.029,0.027,-0.023,0.0,104.0,103.0,102.0,13.3,1505.2,325.3,-0.8,1.8,2469.415,13.28,0.035,130.4
2021-04-25T06:37:03,42.805,6.029,0.02,-0.016,-0.013,104.0,103.0,103.0,13.4,1505.2,328.2,-0.8,1.8,2469.439,13.28,0.025,128.7
2021-04-25T06:40:03,42.805,6.029,0.013,-0.01,0.021,104.0,103.0,102.0,13.4,1505.2,326.7,-0.7,1.8,2469.381,13.28,0.016,127.6
2021-04-25T06:43:03,42.805,6.029,0.027,0.007,0.026,104.0,105.0,103.0,13.4,1505.2,325.4,-0.8,1.8,2469.395,13.28,0.027,75.5
2021-04-25T06:46:03,42.805,6.029,0.028,-0.008,0.015,104.0,105.0,103.0,13.4,1505.2,325.3,-0.8,1.8,2469.381,13.28,0.029,105.9
2021-04-25T06:49:03,42.805,6.029,0.029,-0.006,0.04,105.0,105.0,103.0,13.4,1505.2,325.1,-0.7,1.8,2469.378,13.28,0.029,101.7
2021-04-25T06:52:03,42.805,6.029,0.034,0.008,0.019,104.0,105.0,102.0,13.4,1505.2,326.6,-0.7,1.9,2469.414,13.28,0.034,76.8
2021-04-25T06:55:03,42.805,6.029,0.041,-0.037,0.025,103.0,104.0,102.0,13.4,1505.2,323.6,-0.8,1.8,2469.414,13.28,0.055,132.1
2021-04-25T06:58:03,42.805,6.029,0.024,-0.024,0.025,105.0,103.0,103.0,13.4,1505.2,325.3,-0.7,1.8,2469.409,13.28,0.033,135.0
2021-04-25T07:04:03,42.805,6.029,0.029,-0.019,0.008,104.0,105.0,102.0,13.3,1505.2,328.1,-0.8,1.8,2469.413,13.28,0.034,123.2
2021-04-25T07:07:03,42.805,6.029,0.021,-0.004,0.01,104.0,103.0,103.0,13.4,1505.2,327.6,-0.8,1.8,2469.383,13.28,0.021,100.8
2021-04-25T07:10:03,42.805,6.029,0.012,-0.018,-0.012,103.0,105.0,102.0,13.4,1505.2,327.9,-0.8,1.8,2469.42,13.28,0.021,146.3
2021-04-25T07:13:03,42.805,6.029,0.027,-0.012,0.005,104.0,104.0,103.0,13.4,1505.2,327.8,-0.8,1.8,2469.4,13.28,0.029,114.0
2021-04-25T07:16:03,42.805,6.029,0.052,-0.021,0.046,104.0,103.0,102.0,13.4,1505.2,328.5,-0.7,1.8,2469.356,13.28,0.056,112.0
2021-04-25T07:19:03,42.805,6.029,0.044,-0.044,0.008,104.0,104.0,102.0,13.3,1505.2,327.9,-0.8,1.8,2469.396,13.28,0.062,135.0
2021-04-25T07:22:03,42.805,6.029,0.009,-0.014,0.018,105.0,105.0,103.0,13.4,1505.2,323.8,-0.7,1.8,2469.435,13.28,0.016,147.3
2021-04-25T07:25:03,42.805,6.029,0.024,-0.011,0.008,103.0,106.0,103.0,13.4,1505.2,327.4,-0.8,1.8,2469.424,13.28,0.026,114.6
2021-04-25T07:28:03,42.805,6.029,0.003,-0.021,0.007,103.0,104.0,102.0,13.4,1505.2,326.2,-0.8,1.8,2469.377,13.28,0.021,171.9
2021-04-25T07:31:03,42.805,6.029,0.026,-0.027,-0.026,104.0,104.0,101.0,13.3,1505.2,324.9,-0.7,1.8,2469.409,13.28,0.037,136.1
2021-04-25T07:34:03,42.805,6.029,0.015,0.008,0.021,104.0,104.0,103.0,13.4,1505.2,324.0,-0.7,1.8,2469.409,13.28,0.017,61.9
2021-04-25T07:37:03,42.805,6.029,0.017,-0.016,0.042,104.0,104.0,102.0,13.4,1505.2,328.3,-0.7,1.9,2469.395,13.28,0.023,133.3
2021-04-25T07:40:03,42.805,6.029,-0.005,-0.027,-0.002,104.0,104.0,101.0,13.4,1505.2,325.9,-0.8,1.9,2469.393,13.28,0.027,190.5
2021-04-25T07:43:03,42.805,6.029,0.031,-0.013,0.013,104.0,103.0,102.0,13.4,1505.2,326.4,-0.7,1.8,2469.418,13.28,0.033,112.7
2021-04-25T07:46:03,42.805,6.029,0.036,-0.014,0.022,104.0,105.0,103.0,13.3,1505.2,328.0,-0.8,1.8,2469.421,13.28,0.038,111.2
2021-04-25T07:49:03,42.805,6.029,0.006,-0.013,-0.005,104.0,104.0,102.0,13.4,1505.2,327.9,-0.7,1.8,2469.386,13.28,0.014,155.2
2021-04-25T07:52:03,42.805,6.029,0.034,-0.016,0.023,104.0,103.0,102.0,13.4,1505.2,323.9,-0.7,1.8,2469.387,13.28,0.037,115.2
2021-04-25T07:55:03,42.805,6.029,0.031,-0.023,0.008,104.0,103.0,102.0,13.4,1505.2,327.9,-0.7,1.8,2469.434,13.28,0.038,126.6
2021-04-25T07:58:03,42.805,6.029,0.006,-0.001,-0.012,103.0,104.0,103.0,13.3,1505.2,327.3,-0.7,1.8,2469.414,13.28,0.006,99.5
2021-04-25T08:04:03,42.805,6.029,-0.016,-0.002,-0.029,104.0,104.0,102.0,13.3,1505.2,325.6,-0.8,1.8,2469.405,13.28,0.016,262.9
2021-04-25T08:07:03,42.805,6.029,0.022,-0.012,0.011,103.0,105.0,102.0,13.4,1505.2,324.4,-0.7,1.8,2469.429,13.28,0.025,118.6
2021-04-25T08:10:03,42.805,6.029,0.026,-0.026,-0.039,105.0,104.0,103.0,13.4,1505.2,327.4,-0.7,1.8,2469.378,13.28,0.036,135.0
2021-04-25T08:13:03,42.805,6.029,0.016,-0.02,-0.012,104.0,104.0,102.0,13.4,1505.2,325.3,-0.7,1.9,2469.417,13.28,0.025,141.3
2021-04-25T08:16:03,42.805,6.029,0.012,-0.002,-0.008,104.0,104.0,102.0,13.4,1505.2,324.5,-0.8,1.8,2469.398,13.28,0.012,99.5
2021-04-25T08:19:03,42.805,6.029,0.019,-0.011,0.019,104.0,104.0,102.0,13.3,1505.2,328.8,-0.8,1.8,2469.4,13.28,0.021,120.1
2021-04-25T08:22:03,42.805,6.029,0.024,-0.015,0.026,104.0,105.0,103.0,13.3,1505.2,326.2,-0.8,1.8,2469.373,13.28,0.028,122.0
2021-04-25T08:25:03,42.805,6.029,0.034,-0.019,0.034,105.0,103.0,103.0,13.3,1505.2,325.5,-0.7,1.8,2469.325,13.28,0.038,119.2
2021-04-25T08:28:03,42.805,6.029,0.016,-0.031,0.017,105.0,106.0,103.0,13.4,1505.2,328.3,-0.7,1.8,2469.424,13.28,0.034,152.7
2021-04-25T08:31:03,42.805,6.029,0.026,-0.018,0.02,106.0,105.0,103.0,13.3,1505.2,325.3,-0.7,1.9,2469.404,13.28,0.031,124.7
2021-04-25T08:34:03,42.805,6.029,0.026,-0.009,0.009,105.0,104.0,104.0,13.3,1505.2,326.8,-0.8,1.9,2469.388,13.28,0.027,109.1
2021-04-25T08:37:03,42.805,6.029,0.014,-0.018,-0.011,104.0,105.0,102.0,13.4,1505.2,328.3,-0.7,1.8,2469.351,13.28,0.022,142.1
2021-04-25T08:40:03,42.805,6.029,0.022,0.009,0.024,105.0,105.0,103.0,13.3,1505.2,326.8,-0.8,1.8,2469.39,13.28,0.023,67.8
2021-04-25T08:43:03,42.805,6.029,0.028,-0.026,-0.005,104.0,104.0,103.0,13.4,1505.2,324.7,-0.7,1.8,2469.385,13.28,0.038,132.9
2021-04-25T08:46:03,42.805,6.029,0.019,-0.004,-0.012,104.0,105.0,102.0,13.4,1505.2,326.6,-0.8,1.8,2469.383,13.28,0.019,101.9
2021-04-25T08:49:03,42.805,6.029,0.026,-0.014,-0.005,105.0,103.0,103.0,13.4,1505.2,328.8,-0.8,1.8,2469.415,13.28,0.029,118.3
2021-04-25T08:52:03,42.805,6.029,0.018,-0.032,-0.023,104.0,104.0,103.0,13.4,1505.2,325.6,-0.7,1.8,2469.382,13.28,0.036,150.6
2021-04-25T08:55:03,42.805,6.029,0.026,-0.017,-0.002,103.0,106.0,102.0,13.4,1505.2,324.6,-0.8,1.8,2469.362,13.28,0.031,123.2
2021-04-25T08:58:03,42.805,6.029,0.031,-0.023,0.018,103.0,104.0,102.0,13.4,1505.2,328.5,-0.7,1.8,2469.399,13.28,0.038,126.6
2021-04-25T09:04:03,42.805,6.029,0.011,-0.025,-0.032,103.0,105.0,101.0,13.3,1505.2,324.7,-0.8,1.8,2469.415,13.28,0.027,156.3
2021-04-25T09:07:03,42.805,6.029,0.02,-0.009,0.008,104.0,103.0,102.0,13.4,1505.2,328.7,-0.7,1.8,2469.405,13.28,0.021,114.2
2021-04-25T09:10:03,42.805,6.029,0.02,0.0,0.012,104.0,103.0,102.0,13.3,1505.2,325.7,-0.8,1.8,2469.394,13.28,0.02,90.0
2021-04-25T09:13:03,42.805,6.029,0.024,-0.004,0.009,103.0,103.0,103.0,13.4,1505.2,328.3,-0.7,1.8,2469.375,13.28,0.024,99.5
2021-04-25T09:16:03,42.805,6.029,0.03,-0.003,0.046,104.0,107.0,102.0,13.4,1505.2,325.4,-0.8,1.8,2469.38,13.28,0.03,95.7
2021-04-25T09:19:03,42.805,6.029,0.04,-0.017,-0.006,104.0,105.0,102.0,13.3,1505.2,326.6,-0.7,1.8,2469.397,13.28,0.043,113.0
2021-04-25T09:22:03,42.805,6.029,0.029,-0.026,0.001,104.0,104.0,102.0,13.4,1505.2,328.1,-0.7,1.8,2469.37,13.28,0.038,131.9
2021-04-25T09:25:03,42.805,6.029,0.046,-0.028,-0.009,103.0,105.0,102.0,13.4,1505.2,327.2,-0.7,1.8,2469.374,13.28,0.053,121.3
2021-04-25T09:28:03,42.805,6.029,0.019,-0.012,0.003,104.0,103.0,102.0,13.3,1505.2,323.7,-0.8,1.8,2469.362,13.28,0.022,122.3
2021-04-25T09:31:03,42.805,6.029,0.024,-0.004,0.013,103.0,103.0,104.0,13.4,1505.2,326.0,-0.8,1.8,2469.351,13.28,0.024,99.5
2021-04-25T09:34:03,42.805,6.029,0.016,-0.015,-0.008,105.0,104.0,103.0,13.4,1505.2,325.6,-0.8,1.8,2469.329,13.28,0.021,133.1
2021-04-25T09:37:03,42.805,6.029,0.015,0.017,0.013,105.0,105.0,102.0,13.4,1505.2,328.6,-0.7,1.8,2469.37,13.28,0.022,41.4
2021-04-25T09:40:03,42.805,6.029,0.03,0.0,0.002,105.0,107.0,102.0,13.4,1505.2,325.8,-0.8,1.8,2469.353,13.28,0.03,90.0
2021-04-25T09:43:03,42.805,6.029,0.04,-0.004,0.004,104.0,105.0,102.0,13.3,1505.2,327.5,-0.7,1.8,2469.355,13.28,0.04,95.7
2021-04-25T09:46:03,42.805,6.029,0.022,-0.009,-0.003,105.0,104.0,103.0,13.3,1505.2,328.3,-0.7,1.8,2469.348,13.28,0.023,112.2
2021-04-25T09:49:03,42.805,6.029,0.027,-0.004,0.048,105.0,105.0,103.0,13.4,1505.2,325.2,-0.7,1.8,2469.324,13.28,0.027,98.4
2021-04-25T09:52:03,42.805,6.029,0.042,0.006,-0.001,105.0,106.0,103.0,13.4,1505.2,324.1,-0.8,1.8,2469.319,13.28,0.042,81.9
2021-04-25T09:55:03,42.805,6.029,0.015,0.001,0.009,104.0,105.0,103.0,13.3,1505.2,329.5,-0.8,1.8,2469.27,13.28,0.015,86.2
2021-04-25T09:58:03,42.805,6.029,0.03,-0.031,0.029,104.0,104.0,102.0,13.4,1505.2,326.0,-0.8,1.8,2469.306,13.28,0.043,135.9